Location: Caltech
(34.1382°N, 118.1253°W)
Time: 06:13:03
(UTC-08:00)

Sapphire - Visible Passes

Search period start: 28 January 2015 00:00
Search period end: 07 February 2015 00:00
Orbit: 785 x 798 km, 67.1° (Epoch: 26 January)

Date Brightness Start Highest point End Pass type
(mag) Time Alt. Az. Time Alt. Az. Time Alt. Az.
28 Jan ? 04:14:46 33° NE 04:14:46 33° NE 04:17:43 10° NNE visible
28 Jan ? 05:55:35 15° WNW 05:56:21 15° NW 05:59:19 10° NNW visible
29 Jan ? 03:45:57 16° NE 03:45:57 16° NE 03:47:05 10° NE visible
29 Jan ? 05:26:45 19° NW 05:26:45 19° NW 05:29:30 10° N visible
30 Jan ? 04:57:42 18° NNW 04:57:42 18° NNW 04:59:26 10° N visible
31 Jan ? 04:28:30 14° N 04:28:30 14° N 04:29:15 10° N visible
